Location: Sweet Grass
(48.9965°N, 111.9649°W)
Time: 22:24:41
(UTC+00:00)

X-37B - Visible Passes

Search period start: 04 December 2022 00:00
Search period end: 14 December 2022 00:00
Orbit: 277 x 277 km, 45.0° (Epoch: 01 November)

Date Brightness Start Highest point End Pass type
(mag) Time Alt. Az. Time Alt. Az. Time Alt. Az.
09 Dec 2.6 01:02:31 10° S 01:03:18 11° SSE 01:03:34 11° SSE visible
10 Dec 2.2 01:02:12 10° SSW 01:03:48 16° SSE 01:04:15 15° SE visible
11 Dec 1.8 01:02:23 10° SW 01:04:20 21° SSE 01:04:54 19° SE visible
12 Dec 1.5 01:02:46 10° SW 01:04:54 26° S 01:05:33 23° SE visible
13 Dec 1.4 01:03:16 10° WSW 01:05:29 30° S 01:06:12 25° SE visible
